This demonstration page uses our WeatherBlox Daily Observations layout. Learn more.

Left ArrowRight Arrow

39.29038, -76.61219

Hourly Observations for August 22, 2020

Temp ( °F °C ) Dew Point ( °F °C ) Humidity (%) Winds ( mph kmh ) Pressure ( in mb ) Visibility ( mi km ) Precip ( " mm )
12:54 am 00:54 Cloudy 76 24.4 69 20.6 79 79 SSW 3 6 29.95 1014 10 16 0.00 0.00
1:54 am 01:54 Cloudy with Light Rain 75 23.9 70 21.1 84 84 SSW 3 6 29.93 1014 8 13 0.00 0.00
2:54 am 02:54 Cloudy with Light Rain 75 23.9 71 21.7 88 88 SW 3 6 29.93 1014 8 13 0.00 0.00
3:54 am 03:54 Cloudy with Light Rain 74 23.3 71 21.7 91 91 SSW 6 9 29.93 1014 7 11 0.02 0.51
4:54 am 04:54 Cloudy 74 23.3 71 21.7 91 91 WSW 3 6 29.93 1013 8 13 0.01 0.25
5:54 am 05:54 Cloudy 74 23.3 71 21.7 91 91 Calm 29.93 1014 10 16 0.00 0.00
6:54 am 06:54 Mostly Cloudy 74 23.3 71 21.7 91 91 SW 3 6 29.95 1014 7 11 0.00 0.00
7:54 am 07:54 Cloudy 75 23.9 72 22.2 90 90 VRB 5 7 29.96 1014 9 14 0.00 0.00
8:54 am 08:54 Cloudy with Light Rain 75 23.9 72 22.2 90 90 SSW 3 6 29.97 1015 10 16 0.00 0.00
9:08 am 09:08 Cloudy with Light Rain 76 24.4 72 22.2 88 88 SW 3 6 29.96 1015 10 16 0.00 0.00
9:54 am 09:54 Mostly Cloudy 78 25.6 72 22.2 82 82 SSW 5 7 29.97 1015 10 16 0.00 0.00
10:54 am 10:54 Mostly Cloudy 81 27.2 72 22.2 74 74 S 8 13 29.97 1015 10 16 0.00 0.00
11:54 am 11:54 Mostly Cloudy 82 27.8 71 21.7 69 69 SW 7 11 29.97 1015 10 16 0.00 0.00
12:54 pm 12:54 Mostly Cloudy 83 28.3 69 20.6 63 63 SSW 8 13 29.97 1015 10 16 0.00 0.00
1:54 pm 13:54 Mostly Cloudy 85 29.4 69 20.6 59 59 VRB 5 7 29.97 1015 10 16 0.00 0.00
2:54 pm 14:54 Mostly Cloudy 83 28.3 69 20.6 63 63 S 8 13 29.96 1015 10 16 0.00 0.00
3:54 pm 15:54 Mostly Cloudy 82 27.8 70 21.1 67 67 SSE 5 7 29.96 1015 10 16 0.00 0.00
4:54 pm 16:54 Mostly Cloudy 82 27.8 70 21.1 67 67 SE 5 7 29.96 1015 10 16 0.00 0.00
5:54 pm 17:54 Mostly Cloudy 82 27.8 71 21.7 69 69 VRB 3 6 29.96 1015 10 16 0.00 0.00
6:54 pm 18:54 Mostly Cloudy 80 26.7 71 21.7 74 74 SSE 7 11 29.95 1014 10 16 0.00 0.00
7:54 pm 19:54 Mostly Cloudy 78 25.6 71 21.7 79 79 SSE 5 7 29.98 1015 10 16 0.00 0.00
8:54 pm 20:54 Mostly Cloudy 77 25 71 21.7 82 82 SSE 3 6 29.98 1015 10 16 0.00 0.00
9:54 pm 21:54 Mostly Cloudy 75 23.9 71 21.7 88 88 Calm 29.99 1016 10 16 0.00 0.00
10:54 pm 22:54 Mostly Cloudy 75 23.9 71 21.7 88 88 Calm 30.01 1016 10 16 0.00 0.00
11:54 pm 23:54 Mostly Cloudy 75 23.9 71 21.7 88 88 SSW 3 6 30.01 1016 10 16 0.00 0.00

Powered by AerisWeather